SCP
0 0 0 0 0 0 0 0 0 0 0 0 0 0 0 0 0 0 0 0 0 0 0 0 0 0 0 0 0 0 0 0 0 0 0 0 0 0 0 0 0 0 0
0 0 0 0 0 0 0 0 0 0 0 0 0 0 0 0 0 0 0 0 0 0 0 0 0 0 0 0 0 0 0 0 0 0 0 0 0 0 0 0 0 0 0
0 0 0 0 0 0 0 0 0 0 0 0 0 0 0 0 0 0 0 0 0 0 0 0 0 0 0 0 0 0 0 0 0 0 0 0 0 0 0 0 0 0 0
0 0 0 0 0 0 0 0 0 0 0 0 0 0 0 0 0 0 0 0 0 0 0 0 0 0 0 0 0 0 0 0 0 0 0 0 0 0 0 0 0 0 0
0 0 0 0 0 0 0 0 0 0 0 0 0 0 0 0 0 0 0 0 0 0 0 0 0 0 0 0 0 0 0 0 0 0 0 0 0 0 0 0 0 0 0
0 0 0 0 0 0 0 0 0 0 0 0 0 0 0 0 0 0 0 0 0 0 0 0 0 0 0 0 0 0 0 0 0 0 0 0 0 0 0 0 0 0 0
0 0 0 0 0 0 0 0 0 0 0 0 0 0 0 0 0 0 0 0 0 0 0 0 0 0 0 0 0 0 0 0 0 0 0 0 0 0 0 0 0 0 0
0 0 0 0 0 0 0 0 0 0 0 0 0 0 0 0 0 0 0 0 0 0 0 0 0 0 0 0 0 0 0 0 0 0 0 0 0 0 0 0 0 0 0
0 0 0 0 0 0 0 0 0 0 0 0 0 0 0 0 0 0 0 0 0 0 0 0 0 0 0 0 0 0 0 0 0 0 0 0 0 0 0 0 0 0 0
0 0 0 0 0 0 0 0 0 0 0 0 0 0 0 0 0 0 0 0 0 0 0 0 0 0 0 0 0 0 0 0 0 0 0 0 0 0 0 0 0 0 0
0 0 0 0 0 0 0 0 0 0 0 0 0 0 0 0 0 0 0 0 0 0 0 0 0 0 0 0 0 0 0 0 0 0 0 0 0 0 0 0 0 0 0
0 0 0 0 0 0 0 0 0 0 0 0 0 0 0 0 0 0 0 0 0 0 0 0 0 0 0 0 0 0 0 0 0 0 0 0 0 0 0 0 0 0 0
0 0 0 0 0 0 0 0 0 0 0 0 0 0 0 0 0 0 0 0 0 0 0 0 0 0 0 0 0 0 0 0 0 0 0 0 0 0 0 0 0 0 0
0 0 0 0 0 0 0 0 0 0 0 0 0 0 0 0 0 0 0 0 0 0 0 0 0 0 0 0 0 0 0 0 0 0 0 0 0 0 0 0 0 0 0
0 0 0 0 0 0 0 0 0 0 0 0 0 0 0 0 0 0 0 0 0 0 0 0 0 0 0 0 0 0 0 0 0 0 0 0 0 0 0 0 0 0 0
0 0 0 0 0 0 0 0 0 0 0 0 0 0 0 0 0 0 0 0 0 0 0 0 0 0 0 0 0 0 0 0 0 0 0 0 0 0 0 0 0 0 0
0 0 0 0 0 0 0 0 0 0 0 0 0 0 0 0 0 0 0 0 0 0 0 0 0 0 0 0 0 0 0 0 0 0 0 0 0 -0 -0 0 0 0 0
0 0 0 0 0 0 0 0 0 0 0 0 0 0 0 0 0 0 0 0 0 0 0 0 0 0 0 0 0 0 0 0 0 0 0 0 0 0 0 0 0 0 0
0 0 0 0 0 0 0 0 0 0 0 0 0 0 0 0 0 0 0 0 0 0 0 0 0 0 0 0 0 0 0 0 0 0 0 0 0 0 0 0 0 0 0
0 0 0 0 0 0 0 0 0 0 0 0 0 0 0 0 0 0 0 0 0 0 0 0 0 0 0 0 0 0 0 0 0 0 0 0 0 0 0 0 0 0 0
1 1 0 0 0 0 0 0 0 0 0 0 0 0 0 0 0 0 0 0 0 0 0 0 0 0 0 0 0 0 0 0 0 0 0 0 0 0 0 0 0 0 0
1 1 1 1 0 0 0 0 0 0 0 0 0 0 0 0 0 0 0 0 0 0 0 0 0 0 0 0 0 0 0 0 0 0 0 0 0 0 0 0 0 0 0
1 1 1 1 1 0 0 0 0 0 0 0 0 0 0 0 0 0 0 0 0 0 0 0 0 0 0 0 0 0 0 0 0 0 0 0 0 0 0 0 0 0 0
1 1 1 1 1 0 0 0 0 0 0 0 0 0 0 0 0 0 0 0 0 0 0 0 0 0 0 0 0 0 0 0 0 0 0 0 0 0 0 0 0 0 0
1 1 1 1 1 0 0 0 0 0 0 0 0 0 0 0 0 0 0 0 0 0 0 0 0 0 0 0 0 0 0 0 0 0 0 0 0 0 0 0 0 0 0
1 1 1 1 0 0 0 0 0 0 0 0 0 0 0 0 0 0 0 0 0 0 0 0 0 0 0 0 0 0 0 0 0 0 0 0 0 0 0 0 0 0 0
Wind_Speed
3 3 2 2 2 2 2 2 2 1 1 1 1 1 1 2 3 3 2 7 8 8 9 9 10 10 10 10 9 9 10 9 9 9 9 9 9 9 9 9 8 8 8
3 3 3 2 2 2 2 2 2 1 0 0 1 2 2 2 3 3 3 5 8 9 9 10 10 11 11 10 10 10 10 10 10 9 9 9 9 9 9 9 9 9 8
4 3 3 2 2 2 2 2 2 1 1 1 1 1 2 2 3 3 3 3 4 7 9 10 10 11 11 11 12 11 11 11 11 10 10 10 10 10 10 10 10 9 9
4 4 3 3 3 3 2 2 2 1 1 1 1 1 1 2 3 3 3 3 3 3 6 10 10 10 12 12 12 12 12 12 11 11 11 11 11 11 11 11 10 10 9
5 4 3 3 3 3 2 3 2 2 1 1 1 1 1 2 2 3 3 4 4 4 4 6 10 10 12 13 13 13 13 12 12 12 12 12 12 12 11 11 11 11 10
5 4 3 3 4 3 2 2 2 2 1 1 1 1 1 2 2 2 3 3 3 5 5 5 5 7 11 12 12 13 13 12 13 13 13 12 12 11 11 12 12 11 11
5 5 4 4 4 3 3 4 2 2 1 1 1 1 2 2 2 2 2 2 3 4 5 5 4 4 4 8 10 11 12 12 12 12 12 12 12 12 12 12 12 12 12
6 6 5 4 4 3 3 3 3 2 1 2 2 1 2 3 2 1 1 2 3 3 4 5 5 5 5 4 5 9 11 12 12 12 12 12 12 13 12 13 12 12 12
6 5 6 5 4 4 4 4 4 4 2 2 2 3 2 2 2 2 1 2 2 3 3 3 5 5 6 5 5 7 10 10 11 12 12 12 12 12 12 13 13 13 12
4 5 5 5 5 4 4 4 4 4 4 3 2 2 2 2 1 2 2 1 2 3 3 3 3 4 5 4 4 6 8 8 9 10 10 10 10 11 12 12 13 13 12
3 4 5 4 5 4 5 4 4 4 4 4 3 2 2 1 2 2 3 2 2 2 2 3 3 3 4 4 4 5 7 7 7 7 8 9 9 10 11 11 11 12 12
2 4 5 5 5 4 5 5 5 5 4 4 4 3 3 3 3 3 3 3 2 2 2 2 3 3 3 3 4 5 5 6 6 6 6 7 7 8 9 9 9 10 10
3 4 5 5 4 5 5 4 5 5 5 5 5 4 4 3 3 3 3 2 2 2 2 2 2 2 3 2 3 4 5 5 5 5 5 4 4 5 6 6 7 7 7
4 4 4 5 5 5 5 4 4 4 4 5 5 5 4 4 3 3 3 2 2 2 2 3 1 2 2 2 3 3 3 4 4 4 4 4 4 4 4 4 4 4 4
4 4 5 5 5 5 5 5 4 4 4 5 5 5 4 3 3 4 3 3 3 3 3 3 2 1 2 2 2 2 2 3 4 4 4 4 3 4 4 3 3 3 3
3 3 4 5 5 4 5 4 4 4 4 4 4 4 4 3 3 3 4 3 4 4 3 2 2 1 1 1 2 2 2 3 4 4 4 4 4 3 3 3 3 3 3
4 4 4 4 4 5 5 5 5 5 5 5 4 5 5 4 4 3 3 3 4 4 4 3 2 1 1 2 1 1 2 2 2 4 4 4 4 4 3 3 3 3 4
4 4 4 4 5 5 5 5 6 5 6 6 6 5 6 4 5 4 4 4 4 4 4 4 2 2 2 2 1 2 1 1 2 2 4 4 4 4 4 4 4 4 4
4 4 4 5 5 5 5 6 6 6 6 6 5 6 6 5 5 4 4 4 4 4 3 3 3 2 2 2 1 1 1 1 2 2 3 4 4 4 5 4 4 4 4
4 4 4 4 4 4 5 5 5 5 5 5 5 5 5 6 6 5 5 5 4 3 3 3 3 2 2 2 2 2 1 1 2 1 2 3 3 4 5 4 4 4 4
4 3 3 3 3 3 4 4 4 4 4 4 4 4 5 6 6 5 5 5 5 4 3 3 3 2 2 2 2 2 2 2 2 2 2 2 2 2 3 4 4 4 4
3 3 3 3 3 3 3 4 4 3 3 3 4 4 4 5 5 5 5 6 6 5 5 4 4 4 4 3 2 2 2 2 2 2 2 2 2 3 3 3 4 5 5
3 3 3 3 4 4 4 4 4 3 2 3 3 3 3 3 3 3 4 4 5 6 6 5 5 6 5 5 4 4 4 4 4 2 3 3 2 3 3 3 5 5 5
3 3 3 3 3 3 3 3 3 2 2 3 3 4 3 3 3 3 3 3 3 3 5 4 5 5 5 4 5 5 4 3 2 2 3 3 3 3 3 3 5 6 6
2 2 2 3 2 2 2 2 2 1 1 3 3 3 3 3 3 4 3 3 3 3 3 4 4 4 4 5 4 2 2 2 3 3 3 3 2 2 2 3 4 7 7
2 2 1 2 2 2 1 2 3 2 2 2 2 2 3 3 3 4 4 4 4 4 2 2 2 2 3 3 5 4 4 4 2 3 3 3 2 2 2 2 3 3 4
Wind_Direction
138 137 127 115 115 118 123 129 123 121 122 143 189 192 224 226 216 210 212 217 215 214 216 214 211 211 211 212 213 212 210 210 210 207 205 207 209 208 208 208 209 209 208
141 135 134 134 137 141 143 145 151 147 160 190 234 226 222 218 217 211 212 221 221 216 218 218 217 218 219 218 219 219 218 218 216 213 212 212 213 214 216 216 214 213 216
151 145 144 154 162 150 148 140 135 132 178 210 247 244 227 222 218 217 216 220 225 223 223 223 221 221 224 225 224 223 222 221 220 218 216 216 217 217 219 218 217 219 222
162 154 159 175 167 154 152 151 151 141 163 197 253 263 244 233 228 226 222 220 220 228 229 229 227 226 228 230 230 229 227 224 224 223 222 221 220 219 220 219 219 219 221
170 164 172 176 160 156 165 177 160 162 177 198 241 263 257 246 241 237 232 227 221 223 227 235 235 233 234 236 236 233 232 228 227 227 227 226 225 222 220 220 221 220 221
175 169 173 175 164 161 171 173 169 165 174 184 261 313 300 276 258 245 244 237 227 229 229 233 238 242 240 241 241 238 235 235 232 231 231 230 228 225 221 222 224 221 221
178 173 176 171 170 175 184 177 165 167 180 146 97 350 330 306 272 254 247 242 240 237 230 230 234 240 247 246 245 242 240 241 237 231 229 228 228 226 224 224 224 223 224
181 182 180 182 177 174 178 180 168 163 183 164 146 106 334 329 318 274 249 239 246 244 240 235 231 235 241 242 243 245 246 245 241 235 230 228 229 228 225 227 226 225 224
185 185 182 183 182 180 189 192 180 174 183 195 176 158 172 245 300 310 274 254 256 249 249 243 237 237 236 233 240 246 248 248 244 241 237 232 230 228 227 229 229 227 226
182 182 179 182 185 188 193 200 189 181 173 192 201 200 193 181 194 302 309 288 270 258 253 249 244 241 235 232 235 240 244 245 245 245 245 239 232 228 228 230 232 230 228
184 184 182 184 190 194 198 202 191 189 187 189 192 184 188 200 197 207 271 291 294 271 255 246 242 239 235 234 238 242 242 242 241 244 248 244 240 235 232 232 236 235 230
191 193 190 191 194 196 201 205 197 196 201 202 203 195 188 186 194 196 231 257 274 280 265 251 242 240 237 238 240 240 237 235 230 233 235 238 242 240 235 233 236 234 234
203 207 198 193 197 201 202 196 197 206 204 204 209 213 213 211 186 184 203 236 255 274 283 267 241 242 241 232 240 231 234 224 219 218 219 224 231 238 238 234 233 232 235
211 205 198 201 203 200 200 194 201 211 207 211 217 212 217 221 206 198 194 196 246 271 263 264 264 238 244 235 240 222 228 208 200 202 206 212 219 220 218 223 225 225 224
206 199 198 204 209 205 202 192 204 213 207 215 220 216 219 222 212 215 208 198 198 242 262 252 254 257 237 234 235 218 221 204 193 195 199 207 215 209 206 204 208 205 208
200 190 198 205 210 209 203 197 204 211 210 220 217 218 227 226 216 214 213 211 206 211 243 248 239 252 251 251 218 220 227 211 205 200 200 202 203 201 196 187 183 189 191
184 189 198 204 211 213 209 206 214 212 218 227 226 221 231 225 219 218 213 208 211 206 231 255 241 244 232 236 236 219 223 220 211 201 200 198 193 190 187 184 184 190 192
191 193 198 200 212 214 206 207 218 219 221 227 228 222 231 225 222 220 213 213 212 210 212 240 244 231 235 229 224 223 235 220 210 193 196 200 196 192 189 190 194 196 194
196 194 197 208 214 214 210 211 213 218 221 225 223 222 227 218 224 220 215 214 212 211 210 220 243 233 236 215 212 222 232 237 221 205 200 205 204 201 197 196 198 199 199
199 203 205 215 218 217 214 214 213 219 226 225 220 223 226 220 224 220 217 215 207 203 201 211 230 239 237 222 199 214 241 235 238 227 218 210 206 204 203 200 199 200 201
207 204 203 216 221 221 223 215 214 221 224 231 233 234 232 227 223 216 215 206 197 199 199 208 222 226 229 216 220 213 228 243 245 225 223 222 213 215 209 209 208 208 207
207 200 209 215 222 233 242 225 206 213 217 228 241 248 246 239 231 217 212 203 195 199 205 206 216 223 231 229 228 218 216 225 247 213 209 233 201 221 219 213 208 201 202
201 207 217 217 228 237 233 221 204 201 211 230 238 242 243 241 221 215 214 211 213 217 208 203 213 225 225 221 212 221 220 227 238 209 196 234 217 233 231 219 201 196 196
203 213 221 223 227 247 227 200 178 193 216 237 240 236 229 232 224 201 201 205 225 235 227 218 223 230 230 220 210 216 221 227 244 221 202 229 224 235 241 227 204 198 200
202 210 212 209 212 238 217 181 155 183 239 258 261 253 233 232 224 189 189 201 226 252 245 229 233 234 229 218 200 181 187 198 239 233 205 220 222 228 236 240 221 205 205
207 203 213 224 222 243 227 176 163 175 232 258 263 254 237 229 226 195 200 205 226 246 247 244 244 251 239 218 197 200 202 207 226 234 199 200 206 198 232 224 223 213 212